Погода в Тисуле

Россия / Кемеровская область (Кузбасс)     56°04′22″N   88°41′09″E
темп.,
°C
ветер,
м/с
пор.,
м/с
влажн.,
%
обл.,
%
осадки,
мм/ч
давл.,
гПа
погр.,
м
25 февраля, чт
чт2501:00−14вюв71394100 0.7 1012430
04:00−13вюв3495100 1.2 101080
07:00−11зюз71573100 1.4 1013721
10:00−14зюз51278100 0.0 1015979
13:00−14зюз8137599 0.0 10171219
16:00−15зюз7137651 0.0 10181241
19:00−19зюз3128874 0.0 1021511
22:00−21юз4128797 0.1 1023779
26 февраля, пт
пт2601:00−22ю369087 0.1 1022144
04:00−20зюз2899100 0.3 1022407
07:00−21юз3997100 0.7 1024907
10:00−22зюз71283100 0.1 10261498
13:00−20зюз71281100 0.2 10281733
16:00−21зюз71282100 0.1 10281502
19:00−22зюз41296100 0.2 10301509
22:00−23з61492100 0.2 10321252
27 февраля, сб
сб2701:00−25з51392100 0.3 10341031
04:00−25зюз61394100 0.1 1035933
07:00−24зюз51294100 0.3 1035868
10:00−23зюз61291100 0.1 1036917
13:00−21зюз61090100 0.3 1036988
16:00−20зюз5990100 0.1 10361012
19:00−22з31097100 0.3 1037684
22:00−23з31098100 0.1 1038577
28 февраля, вс
вс2801:00−23з31097100 0.3 1039545
04:00−24з3897100 0.1 1040365
07:00−25зюз2299100 0.1 104153
10:00−24юз2594100 0.0 1041188
13:00−19юз248573 0.0 1040493
16:00−17ююв1287100 0.0 1038417
19:00−21вюв239494 0.1 103836
22:00−22вюв339372 0.0 103741
1 марта, пн
пн101:00−22вюв349073 0.0 103554
04:00−20вюв478899 0.0 1032126
07:00−18вюв488799 0.0 1028159
10:00−14вюв5994100 0.1 1025216
13:00−11вюв5995100 1.1 1021280
16:00−8юв3695100 0.9 1017265
19:00−8юв3596100 2.2 1015157
22:00−5ю21197100 1.7 1014712